Location: Churchill Northern Studies Centre
(58.7378°N, 93.8201°W)
Time: 22:56:20
(UTC-05:00)

Vanguard 1 Rocket - All Passes

Search period start: 17 June 2018 00:00
Search period end: 27 June 2018 00:00
Orbit: 653 x 4224 km, 34.3° (Epoch: 17 June)

Date Brightness Start Highest point End Pass type
(mag) Time Alt. Az. Time Alt. Az. Time Alt. Az.
17 Jun - 20:53:14 10° S 20:54:44 11° S 20:56:23 10° SSE daylight
17 Jun - 23:17:54 10° SSW 23:18:43 10° SSW 23:19:33 10° S daylight
18 Jun - 22:07:13 10° S 22:07:55 10° S 22:08:38 10° S daylight
